Home   Weather   Taiyuan   Past weeks
Flag for China

Past Weather in Taiyuan, Shanxi, China — Yesterday and Last 2 Weeks

Now
82 °F

Sunny.


Feels Like: 82 °F
Forecast: 86 / 69 °F
Wind: 6 mph from Southeast

Location: Taiyuan Airport

Current Time: Jul 16, 2019 at 6:27:53 pm

Latest Report: Jul 16, 2019 at 5:30 pm


Visibility: 10 mi

Pressure: 29.80 "Hg (27.24 "Hg at 790m altitude)

Humidity: 42%

Dew Point: 57 °F

Location of TaiyuanLocation

Past Weather in Taiyuan — Graph

°F

Taiyuan Temperature Yesterday

Maximum temperature yesterday: 91 °F (at 3:00 pm)
Minimum temperature yesterday: 72 °F (at 5:00 am)
Average temperature yesterday: 81 °F

High & Low Weather Summary for the Past Weeks

 TemperatureHumidityPressure
High97 °F (Jul 2, 4:00 pm)88% (Jul 12, 4:30 am)29.95 "Hg (Jul 12, 4:30 am)
Low55 °F (Jul 7, 4:30 am)15% (Jul 2, 3:30 pm)29.42 "Hg (Jul 5, 2:30 pm)
Average77 °F49%29.76 "Hg
* Reported Jul 1 5:00 pm — Jul 16 5:30 pm, Taiyuan. Weather by CustomWeather, © 2019

Note: Actual official high and low records may vary slightly from our data, if they occured in-between our weather recording intervals... More about our weather records

Advertising

Taiyuan Weather History for the Previous 24 Hours

Scroll right to see more
 ConditionsComfort  
Time TempWeatherWind HumidityBarometerVisibility
5:30 pm
Tue, Jul 16
82 °FSunny.6 mph42%29.80 "Hg10 mi
5:00 pm82 °FPassing clouds.3 mph40%29.80 "HgN/A
4:30 pm84 °FPassing clouds.6 mph40%29.80 "HgN/A
4:00 pm82 °FPassing clouds.8 mph42%29.80 "HgN/A
3:30 pm82 °FSunny.3 mph48%29.80 "Hg10 mi
3:00 pm82 °FLight rain. Clear.6 mph51%29.80 "HgN/A
2:30 pm82 °FLight rain. Clear.8 mph51%29.80 "HgN/A
2:00 pm82 °FSunny.6 mph51%29.80 "Hg10 mi
1:30 pm82 °FSunny.10 mph51%29.83 "Hg10 mi
1:00 pm82 °FSunny.10 mph51%29.83 "Hg10 mi
12:30 pm82 °FClear.8 mph51%29.83 "Hg4 mi
12:00 pm82 °FClear.6 mph51%29.83 "Hg4 mi
11:30 am81 °FClear.8 mph58%29.83 "Hg4 mi
11:00 am81 °FClear.6 mph58%29.83 "Hg4 mi
10:30 am77 °FClear.8 mph61%29.86 "Hg4 mi
10:00 am77 °FClear.6 mph65%29.86 "Hg4 mi
9:30 am75 °FClear.8 mph65%29.86 "Hg4 mi
9:00 am75 °FClear.8 mph65%29.86 "Hg4 mi
8:30 am75 °FClear.6 mph65%29.86 "Hg4 mi
8:00 am75 °FClear.3 mph65%29.83 "Hg4 mi
7:30 am73 °FClear.6 mph69%29.83 "Hg4 mi
7:00 am73 °FClear.6 mph69%29.83 "Hg4 mi
6:30 am73 °FClear.6 mph69%29.83 "Hg4 mi
6:00 am72 °FClear.6 mph73%29.83 "Hg4 mi
5:30 am73 °FPassing clouds.3 mph69%29.83 "HgN/A
5:00 am73 °FClear.3 mph65%29.83 "Hg10 mi
4:30 am73 °FClear.6 mph69%29.83 "Hg10 mi
4:00 am73 °FClear.3 mph65%29.80 "Hg10 mi
3:30 am73 °FClear.6 mph65%29.83 "Hg10 mi
3:00 am73 °FClear.3 mph69%29.80 "Hg10 mi
2:30 am75 °FClear.6 mph65%29.80 "Hg10 mi
2:00 am75 °FClear.6 mph65%29.83 "Hg10 mi
1:30 am75 °FClear.8 mph65%29.83 "Hg10 mi
1:00 am75 °FClear.6 mph65%29.83 "Hg10 mi
12:30 am75 °FClear.8 mph65%29.83 "Hg10 mi
12:00 am75 °FClear.10 mph65%29.83 "Hg5 mi
11:30 pm
Mon, Jul 15
75 °FClear.10 mph65%29.83 "Hg5 mi
11:00 pm79 °FClear.8 mph61%29.83 "Hg5 mi
10:30 pm79 °FClear.6 mph61%29.80 "Hg5 mi
10:00 pm81 °FClear.8 mph58%29.80 "Hg5 mi
9:30 pm81 °FPassing clouds.6 mph58%29.80 "HgN/A
9:00 pm81 °FClear.8 mph54%29.80 "Hg10 mi
8:30 pm81 °FClear.10 mph51%29.77 "Hg10 mi
7:30 pm82 °FSunny.13 mph45%29.74 "Hg10 mi
7:00 pm84 °FSunny.8 mph43%29.74 "Hg10 mi
6:30 pm84 °FPassing clouds.10 mph40%29.74 "HgN/A
6:00 pm86 °FSunny.10 mph38%29.71 "Hg10 mi
Weather by CustomWeather, © 2019

See weather overview

LIVE PARTIAL LUNAR ECLIPSE – Watch the eclipse as it happens